User: anonymous
Location: Irma
(52.9170°N, 111.2330°W)
Time: 18:33:52
(UTC-06:00)
Language:

deb Chang Zheng 4 - Orbit

View from above orbital plane
View from above orbital plane
View from above satellite
View from above satellite

Ground track
Ground track

The orbit data is extracted from the following two-line orbital elements,

1 20847U 90081K   14209.09232299  .00004633  00000-0  83887-3 0  1334
2 20847 098.5718 014.7960 0023582 166.8896 330.0800 14.66668683250197
Epoch (UTC): 28 July 2014 02:12:56
Eccentricity: 0.0023582
inclination: 98.5718°
perigee height: 655 km
apogee height: 688 km
right ascension of ascending node: 14.7960°
argument of perigee: 166.8896°
revolutions per day: 14.66668683
mean anomaly at epoch: 330.0800°
orbit number at epoch: 25019

The dashed part of the orbit path shows where the satellite is in the earth's shadow,  

DLR